Location: Unspecified
(48.5670°N, 0.0000°E)
Time: 22:14:24
(UTC+00:00)

Transit 4A - Pass Details

Date: 27 August 2019
Orbit: 865 x 980 km, 66.8° (Epoch: 19 September)

Event Time Altitude Azimuth Distance (km) Brightness Sun altitude
Rises 23:54:41 0° 324° (NW) 3,660 11.8 -31.2°
Reaches altitude 10° 23:57:41 10° 336° (NNW) 2,695 11.1 -31.2°
Maximum altitude 00:03:01 28° 34° (NNE) 1,688 9.7 -31.2°
Enters shadow 00:08:05 11° 91° (E) 2,581 10.2 -31.2°
